Location: Croydon
(51.3762°N, 0.0982°W)
Time: 18:39:22
(UTC+00:00)

Courier 1B - All Passes

Search period start: 22 November 2019 00:00
Search period end: 02 December 2019 00:00
Orbit: 963 x 1209 km, 28.3° (Epoch: 21 November)

Date Brightness Start Highest point End Pass type
(mag) Time Alt. Az. Time Alt. Az. Time Alt. Az.
28 Nov - 03:53:23 10° S 03:54:14 10° S 03:55:05 10° S visible
29 Nov - 03:00:19 10° S 03:00:48 10° S 03:01:17 10° S visible
30 Nov - 03:58:46 10° SSW 03:59:51 10° S 04:00:56 10° S visible
01 Dec - 03:04:33 10° SSW 03:06:24 11° S 03:08:15 10° SSE visible
